Location: Jangalapalle
(16.8036°N, 80.6370°E)
Time: 10:05:51
(UTC+00:00)

Cosmos 1544 Rocket - Pass Details

Date: 05 August 2024
Orbit: 601 x 626 km, 82.5° (Epoch: 10 September)

Event Time Altitude Azimuth Distance (km) Brightness Sun altitude
Rises 13:27:46 0° 11° (NNE) 2,848 7.1 -5.3°
Reaches altitude 10° 13:30:13 10° 23° (NNE) 1,948 6.1 -5.9°
Maximum altitude 13:33:56 29° 83° (E) 1,130 4.4 -6.7°
Drops below altitude 10° 13:37:41 10° 144° (SE) 1,957 5.6 -7.6°
Enters shadow 13:39:50 - 154° (SSE) 2,745 6.4 -8.1°
